Starlink 32877

operational
NORAD ID: 62960 Int'l Des: 2025-029 Owner: SPXS Country: US Constellation: starlink
LEOCIRCULAR

About Starlink 32877

Description loading...

Live Position

Loading 3D Globe...

Upcoming Passes

Altitude History

Altitude vs Time

uPlot chart will show altitude changes over time

Two-Line Element Set

1 62960U 25029N 25312.72567990 .00040421 00000-0 13681-2 0 9991
2 62960 53.1600 74.5926 0000970 73.9716 286.1391 15.30231994 42779
Epoch: Nov 8, 2025 • Age: 60 hours

Current Status

Altitude 478.6 km
Velocity 7.63 km/s
Sub-Earth Point 45.16°N, 17.8°W
Launch Date Feb 11, 2025
Age 0.7 years
Type internet

Technical Details

Classification Payload
Mass 730.00 kg
Dry Mass 700.00 kg
Total Mass 730.00 kg
Length 0.30 m
Diameter 4.10 m
Span 29.00 m
Shape Box + pan
Manufacturer SPXS
Bus Type Starlink V2M
Phase Status In Orbit
Owner/State SPXS/US

Large Constellations

Loading constellations...